Hourly Data Report for October 05, 2017

All times are specified in Local Standard Time (LST). Add 1 hour to adjust for Daylight Saving Time where and when it is observed.

EUREKA CLIMATE
NUNAVUT

79°59'21.000" N
85°56'02.000" W
10.00 m
2401199
71613
NEK

Download Data

Hourly Data (October 2017)
Hourly Data Report for October 5, 2017
Temp Definition
°C
Dew Point Temp Definition
°C
Rel Hum Definition
%
Wind Dir Definition
10's deg

Wind Spd Definition
km/h
Visibility Definition
km
Stn Press Definition
kPa
Hmdx Definition


Wind Chill Definition


Weather Definition


TIME
00:00 -12.3 -14.7 82 28 31   101.07   -23 LegendNANA
01:00 -12.3 -14.8 81 30 31   101.06   -23 LegendNANA
02:00 -12.3 -15.0 81 31 23   101.06   -21 LegendNANA
03:00 -12.0 -14.7 81 31 22   101.08   -21 LegendNANA
04:00 -11.0 -13.9 79 29 32   101.08   -21 LegendNANA
05:00 -15.4 -18.9 75 36 15   101.10   -23 LegendNANA
06:00 -12.9 -17.1 71 32 16   101.11   -21 LegendNANA
07:00 -11.1 -14.4 76 30 25   101.12   -20 LegendNANA
08:00 -11.6 -14.8 77 30 22   101.15   -20 LegendNANA
09:00 -10.7 -15.8 66 32 12   101.19   -17 LegendNANA
10:00 -11.5 -14.4 79 36 7   101.17   -16 LegendNANA
11:00 -16.8 -19.0 83 9 12   101.25   -24 LegendNANA
12:00 -16.7 -19.4 79 11 17   101.32   -26 LegendNANA
13:00 -16.6 -19.5 78 11 13   101.36   -24 LegendNANA
14:00 -17.0 -19.8 79 11 11   101.44   -24 LegendNANA
15:00 -18.5 -20.9 81 4 7   101.50   -24 LegendNANA
16:00 -19.3 -21.7 81 9 6   101.56   -24 LegendNANA
17:00 -20.4 -22.6 83 10 2   101.63   -22 LegendNANA
18:00 -19.0 -21.3 82 9 8   101.65   -25 LegendNANA
19:00 -19.0 -21.0 84 8 8   101.68   -25 LegendNANA
20:00 -20.5 -22.5 84 10 5   101.67   -25 LegendNANA
21:00 -20.8 -22.9 84 13 7   101.66   -27 LegendNANA
22:00 -20.1 -21.8 87 9 6   101.64   -25 LegendNANA
23:00 -21.7 -23.6 84 12 2   101.63   -24 LegendNANA

Notes on Data Quality.

Legend

  • E = Estimated
  • M = Missing
  • NA = Not Available
  • ‡ = Partner data that is not subject to review by the National Climate Archives
Date modified: